| time (UTC) | temp C | wind direction | speed KPH | gust KPH | rain 1hr cm | rain 24hr cm | rain mn cm | humidity % | barometer mb |
| 20260506201525 | 24 | 313 | 12.9 | 37.0 | 0.00 | 0.00 | 0.00 | 14 | 992.1 |
| 20260506200007 | 25 | 324 | 14.5 | 35.4 | 0.00 | 0.00 | 0.00 | 15 | 992.2 |
| 20260506194506 | 23 | 324 | 22.5 | 33.8 | 0.00 | 0.00 | 0.00 | 18 | 992.1 |
| 20260506193001 | 23 | 10 | 24.1 | 32.2 | 0.00 | 0.00 | 0.00 | 16 | 992.6 |
| 20260506191619 | 23 | 300 | 16.1 | 41.8 | 0.00 | 0.00 | 0.00 | 17 | 992.6 |
| 20260506190053 | 22 | 355 | 14.5 | 35.4 | 0.00 | 0.00 | 0.00 | 20 | 992.9 |
| 20260506184559 | 22 | 279 | 16.1 | 30.6 | 0.00 | 0.00 | 0.00 | 21 | 993.1 |
| 20260506183045 | 22 | 325 | 19.3 | 38.6 | 0.00 | 0.00 | 0.00 | 21 | 993.3 |
| 20260506181543 | 21 | 316 | 11.3 | 24.1 | 0.00 | 0.00 | 0.00 | 21 | 993.3 |
| 20260506180040 | 21 | 360 | 9.7 | 35.4 | 0.00 | 0.00 | 0.00 | 24 | 993.5 |
| 20260506174536 | 20 | 355 | 9.7 | 20.9 | 0.00 | 0.00 | 0.00 | 25 | 993.5 |
| 20260506173030 | 20 | 34 | 16.1 | 24.1 | 0.00 | 0.00 | 0.00 | 26 | 993.7 |
| 20260506171538 | 19 | 277 | 4.8 | 30.6 | 0.00 | 0.00 | 0.00 | 28 | 993.9 |
| 20260506170024 | 18 | 288 | 11.3 | 30.6 | 0.00 | 0.00 | 0.00 | 30 | 993.8 |
| 20260506164524 | 18 | 5 | 17.7 | 30.6 | 0.00 | 0.00 | 0.00 | 29 | 993.7 |
| 20260506163023 | 17 | 355 | 6.4 | 24.1 | 0.00 | 0.00 | 0.00 | 32 | 993.7 |
| 20260506161524 | 17 | 333 | 6.4 | 29.0 | 0.00 | 0.00 | 0.00 | 35 | 993.8 |
| 20260506160018 | 16 | 296 | 12.9 | 29.0 | 0.00 | 0.00 | 0.00 | 36 | 993.7 |
| 20260506154520 | 16 | 342 | 17.7 | 32.2 | 0.00 | 0.00 | 0.00 | 37 | 993.7 |
| 20260506153016 | 16 | 343 | 14.5 | 20.9 | 0.00 | 0.00 | 0.00 | 39 | 993.7 |
| 20260506151522 | 15 | 355 | 20.9 | 32.2 | 0.00 | 0.00 | 0.00 | 40 | 993.8 |
| 20260506150119 | 14 | 5 | 14.5 | 22.5 | 0.00 | 0.00 | 0.00 | 43 | 993.8 |
| 20260506144558 | 14 | 350 | 16.1 | 24.1 | 0.00 | 0.00 | 0.00 | 44 | 993.8 |
| 20260506143044 | 13 | 350 | 14.5 | 20.9 | 0.00 | 0.00 | 0.00 | 46 | 993.7 |
| 20260506141541 | 13 | 325 | 16.1 | 24.1 | 0.00 | 0.00 | 0.00 | 47 | 993.8 |
| 20260506140040 | 11 | 334 | 4.8 | 17.7 | 0.00 | 0.00 | 0.00 | 55 | 993.7 |
| 20260506134538 | 9 | 333 | 3.2 | 14.5 | 0.00 | 0.00 | 0.00 | 65 | 993.7 |
| 20260506133036 | 6 | 32 | 1.6 | 6.4 | 0.00 | 0.00 | 0.00 | 82 | 993.6 |
| 20260506131541 | 3 | 30 | 0.0 | 1.6 | 0.00 | 0.00 | 0.00 | 85 | 993.4 |
| 20260506130127 | 2 | 31 | 0.0 | 3.2 | 0.00 | 0.00 | 0.00 | 83 | 993.1 |
| 20260506124522 | 2 | 30 | 0.0 | 1.6 | 0.00 | 0.00 | 0.00 | 82 | 992.9 |
| 20260506123018 | 2 | 355 | 0.0 | 3.2 | 0.00 | 0.00 | 0.00 | 81 | 992.7 |
| 20260506121513 | 2 | 360 | 0.0 | 3.2 | 0.00 | 0.00 | 0.00 | 79 | 992.6 |
| 20260506120009 | 3 | 360 | 0.0 | 1.6 | 0.00 | 0.00 | 0.00 | 77 | 992.4 |
| 20260506114522 | 3 | 360 | 0.0 | 6.4 | 0.00 | 0.00 | 0.00 | 76 | 992.2 |
| 20260506113003 | 4 | 347 | 0.0 | 6.4 | 0.00 | 0.00 | 0.00 | 73 | 992.2 |
| 20260506111531 | 5 | 346 | 0.0 | 8.0 | 0.00 | 0.00 | 0.00 | 70 | 992.0 |
| 20260506110034 | 5 | 322 | 3.2 | 8.0 | 0.00 | 0.00 | 0.00 | 72 | 991.9 |
| 20260506104604 | 6 | 340 | 0.0 | 6.4 | 0.00 | 0.00 | 0.00 | 67 | 991.9 |
| 20260506103055 | 7 | 337 | 0.0 | 6.4 | 0.00 | 0.00 | 0.00 | 63 | 991.9 |
| 20260506101552 | 8 | 49 | 0.0 | 6.4 | 0.00 | 0.00 | 0.00 | 59 | 991.9 |
| 20260506100104 | 10 | 320 | 1.6 | 14.5 | 0.00 | 0.00 | 0.00 | 53 | 991.9 |
| 20260506094550 | 9 | 291 | 0.0 | 8.0 | 0.00 | 0.00 | 0.00 | 56 | 991.9 |
| 20260506093048 | 10 | 281 | 0.0 | 1.6 | 0.00 | 0.00 | 0.00 | 54 | 991.8 |
| 20260506091521 | 10 | 281 | 1.6 | 9.7 | 0.00 | 0.00 | 0.00 | 54 | 992.0 |
| 20260506090017 | 7 | 290 | 0.0 | 9.7 | 0.00 | 0.00 | 0.00 | 60 | 992.1 |
| 20260506084513 | 7 | 360 | 0.0 | 1.6 | 0.00 | 0.00 | 0.00 | 61 | 992.2 |
| 20260506083013 | 8 | 34 | 0.0 | 14.5 | 0.00 | 0.00 | 0.00 | 54 | 992.4 |
| 20260506081512 | 10 | 342 | 0.0 | 16.1 | 0.00 | 0.00 | 0.00 | 53 | 992.4 |
| 20260506073007 | 8 | 360 | 1.6 | 8.0 | 0.00 | 0.00 | 0.00 | 55 | 992.9 |
| 20260506071505 | 8 | 360 | 0.0 | 8.0 | 0.00 | 0.00 | 0.00 | 55 | 992.8 |
| 20260506061528 | 6 | 296 | 0.0 | 6.4 | 0.00 | 0.00 | 0.00 | 60 | 992.9 |
| 20260506044510 | 11 | 30 | 0.0 | 8.0 | 0.00 | 0.00 | 0.00 | 42 | 992.8 |
| 20260506043005 | 10 | 333 | 1.6 | 8.0 | 0.00 | 0.00 | 0.00 | 44 | 992.6 |
| 20260506041532 | 11 | 348 | 0.0 | 3.2 | 0.00 | 0.00 | 0.00 | 42 | 992.0 |
| 20260506040032 | 12 | 347 | 0.0 | 12.9 | 0.00 | 0.00 | 0.00 | 37 | 992.0 |
| 20260506034530 | 11 | 336 | 3.2 | 12.9 | 0.00 | 0.00 | 0.00 | 40 | 992.0 |
| 20260506033033 | 12 | 305 | 0.0 | 1.6 | 0.00 | 0.00 | 0.00 | 46 | 991.8 |
| 20260506031530 | 13 | 305 | 0.0 | 1.6 | 0.00 | 0.00 | 0.00 | 40 | 991.5 |
| 20260506030041 | 14 | 300 | 3.2 | 8.0 | 0.00 | 0.00 | 0.00 | 34 | 991.5 |
| 20260506024554 | 15 | 24 | 6.4 | 16.1 | 0.00 | 0.00 | 0.00 | 32 | 991.3 |
| 20260506023042 | 15 | 346 | 9.7 | 20.9 | 0.00 | 0.00 | 0.00 | 32 | 990.9 |
| 20260506021538 | 15 | 321 | 8.0 | 20.9 | 0.00 | 0.00 | 0.00 | 33 | 990.6 |
| 20260506020035 | 16 | 346 | 11.3 | 22.5 | 0.00 | 0.00 | 0.00 | 31 | 990.8 |
| 20260506014539 | 16 | 303 | 14.5 | 38.6 | 0.00 | 0.00 | 0.00 | 31 | 990.6 |
| 20260506013031 | 17 | 319 | 19.3 | 35.4 | 0.00 | 0.00 | 0.00 | 31 | 990.3 |
| 20260506011534 | 18 | 329 | 25.7 | 45.1 | 0.00 | 0.00 | 0.00 | 30 | 990.1 |
| 20260506010101 | 18 | 323 | 27.4 | 43.5 | 0.00 | 0.00 | 0.00 | 30 | 989.9 |
| 20260506004552 | 18 | 298 | 25.7 | 38.6 | 0.00 | 0.00 | 0.00 | 31 | 989.5 |
| 20260506003023 | 19 | 325 | 24.1 | 46.7 | 0.00 | 0.00 | 0.00 | 28 | 989.6 |
| 20260506001519 | 19 | 330 | 19.3 | 48.3 | 0.00 | 0.00 | 0.00 | 29 | 989.6 |
| 20260506000018 | 19 | 314 | 32.2 | 41.8 | 0.00 | 0.00 | 0.00 | 29 | 989.6 |
| 20260505234514 | 19 | 338 | 25.7 | 38.6 | 0.00 | 0.00 | 0.00 | 29 | 989.5 |
| 20260505233012 | 19 | 342 | 27.4 | 48.3 | 0.00 | 0.00 | 0.00 | 29 | 989.7 |
| 20260505231520 | 19 | 325 | 33.8 | 45.1 | 0.00 | 0.00 | 0.00 | 29 | 989.7 |
| 20260505230012 | 20 | 327 | 22.5 | 38.6 | 0.00 | 0.00 | 0.00 | 29 | 989.4 |
| 20260505224509 | 20 | 321 | 29.0 | 45.1 | 0.00 | 0.00 | 0.00 | 25 | 989.4 |
| 20260505223005 | 20 | 333 | 27.4 | 56.3 | 0.00 | 0.00 | 0.00 | 28 | 989.4 |
| 20260505221504 | 20 | 348 | 25.7 | 41.8 | 0.00 | 0.00 | 0.00 | 26 | 989.6 |
| 20260505220002 | 20 | 16 | 22.5 | 51.5 | 0.00 | 0.00 | 0.00 | 26 | 989.8 |
| 20260505214605 | 21 | 9 | 25.7 | 41.8 | 0.00 | 0.00 | 0.00 | 23 | 989.7 |
| 20260505213109 | 21 | 28 | 16.1 | 45.1 | 0.00 | 0.00 | 0.00 | 21 | 989.6 |
| 20260505211556 | 22 | 54 | 27.4 | 41.8 | 0.00 | 0.00 | 0.00 | 19 | 988.9 |
| 20260505210058 | 23 | 5 | 25.7 | 43.5 | 0.00 | 0.00 | 0.00 | 20 | 989.2 |
| 20260505204554 | 23 | 26 | 25.7 | 46.7 | 0.00 | 0.00 | 0.00 | 20 | 989.3 |
| 20260505203055 | 22 | 24 | 27.4 | 41.8 | 0.00 | 0.00 | 0.00 | 20 | 989.3 |
| 20260505201552 | 23 | 5 | 29.0 | 45.1 | 0.00 | 0.00 | 0.00 | 18 | 989.4 |